TEVEL2-1

Last updated on Mon Nov 03 2025 00:03:22 GMT+0000 (Coordinated Universal Time)

1 63217U 25052H 25306.23815979 .00016532 00000+0 67103-3 0 9999 2 63217 97.4101 198.2311 0002511 160.2142 199.9194 15.24670877 35404
UTC large
Height (km)
Speed (km/s)
/
Latitude / Longitude
Inclination (degrees)
Orbital Period (minutes)
Azimuth
Elevation
Range (km)
Doppler Factor

Next 0 passes for location: London (51.5072 / 0.1276)

Sorry there are no passes over London.